Location: Most
(50.5330°N, 13.6500°E)
Time: 15:23:23
(UTC+02:00)

ISS - Visible Passes

Search period start: 26 June 2022 00:00
Search period end: 06 July 2022 00:00
Orbit: 415 x 420 km, 51.6° (Epoch: 26 June)

Date Brightness Start Highest point End Pass type
(mag) Time Alt. Az. Time Alt. Az. Time Alt. Az.
28 Jun -1.7 04:09:56 10° S 04:12:19 18° SE 04:14:43 10° E visible
29 Jun -1.3 03:23:28 10° SSE 03:24:55 12° SE 03:26:23 10° ESE visible
30 Jun -2.8 04:10:39 10° SW 04:13:47 36° SSE 04:16:57 10° E visible
01 Jul -2.4 03:24:41 15° SSW 03:26:42 26° SE 03:29:34 10° E visible
02 Jul -2.0 02:39:13 18° SSE 02:39:49 18° SE 02:42:15 10° E visible
03 Jul -1.4 01:53:54 12° ESE 01:53:54 12° ESE 01:54:44 10° ESE visible
03 Jul -3.5 03:26:53 15° SW 03:29:26 52° SSE 03:32:46 10° ENE visible
04 Jul -3.1 02:41:42 28° SSW 02:42:52 38° SSE 02:46:04 10° E visible
05 Jul -2.6 01:56:40 27° SE 01:56:40 27° SE 01:59:29 10° E visible
05 Jul -3.8 03:29:45 10° WSW 03:33:09 88° SSE 03:36:36 10° ENE visible
